Regional Weather Roundup
Issued by NWS

Home | Current Version | Previous Version | Text Only | Print | Product List | Glossary Off
Versions: 1 2 3 4 5 6 7 8 9 10 11 12 13 14 15 16 17 18 19 20 21 22 23 24 25 26 27 28 29 30 31 32 33 34 35 36 37 38 39 40 41 42 43 44 45 46 47 48 49 50

000
ASUS44 KMEG 020810
RWRTN
TENNESSEE HOURLY STATE WEATHER ROUNDUP
NATIONAL WEATHER SERVICE MEMPHIS TN
300 AM CDT SAT AUG 02 2014

TNZ002-004-019-021-049-052-054-088>092-020900-
WEST TENNESSEE

CITY           SKY/WX    TMP DP  RH WIND       PRES   REMARKS
MEMPHIS INTL   PTCLDY    75  64  68 NE5       30.03S
NWS MEMPHIS      N/A     70 N/A N/A MISG        N/A
JACKSON        CLEAR     65  63  93 CALM      30.04S FOG
DYERSBURG      CLEAR     66  57  72 CALM      30.05S
UNION CITY     CLEAR     64  64 100 CALM      30.03F
PARIS          PTCLDY    63  61  93 CALM      30.04F
LEXINGTON      CLOUDY    66  64  94 CALM      30.03S VSB 1/4
SAVANNAH       MOCLDY    68  68 100 CALM      30.04S
$$

TNZ008-025-027-028-033-062-065-066-020900-
NORTH MIDDLE TENNESSEE

CITY           SKY/WX    TMP DP  RH WIND       PRES   REMARKS
NASHVILLE      MOCLDY    73  67  81 CALM      30.04S
DICKSON        MOCLDY    66  63  88 CALM      30.04F
PORTLAND       MOCLDY    64  61  88 CALM      30.04F
CLARKSVILLE    CLOUDY    68  59  73 CALM      30.03F
LEBANON        MOCLDY    71  65  81 CALM      30.03S
SMYRNA         MOCLDY    71  70  97 CALM      30.05S
MURFREESBORO   MOCLDY    72  68  87 CALM      30.04S
COOKEVILLE     MOCLDY    68  68 100 CALM      30.06S
LIVINGSTON       N/A     68  62  80 CALM      30.08S
GALLATIN       MOCLDY    71  64  78 CALM      30.05S
CROSSVILLE     CLOUDY    70  64  81 CALM      30.11S
$$

TNZ061-075-076-078-094-096-097-020900-
SOUTH MIDDLE TENNESSEE

CITY           SKY/WX    TMP DP  RH WIND       PRES   REMARKS
LEWISBURG      PTCLDY    68  65  90 CALM      30.04S
FAYETTEVILLE   MOCLDY    68  63  83 CALM      30.05S
TULLAHOMA      MOCLDY    70  64  83 S3        30.07S
WINCHESTER     CLEAR     70  66  88 CALM      30.06S
MCMINNVILLE    PTCLDY    70  70 100 CALM      30.07S
COLUMBIA       PTCLDY    66  66 100 CALM      30.04R
SHELBYVILLE    CLOUDY    70  70 100 CALM      30.06S
$$

TNZ017-018-042-046-047-020900-
NORTHEAST TENNESSEE

CITY           SKY/WX    TMP DP  RH WIND       PRES   REMARKS
TRI CITIES     MOCLDY    62  57  83 CALM      30.11S
ELIZABETHTON   SUNNY     61  57  88 CALM      30.12S
$$

TNZ012-013-036-069-073-074-020900-
CENTRAL EAST TENNESSEE

CITY           SKY/WX    TMP DP  RH WIND       PRES   REMARKS
KNOXVILLE      LGT RAIN  69  67  93 NE3       30.07S
OAK RIDGE      CLOUDY    69  67  93 E3        30.08F
GATLINBURG     CLOUDY    66  64  94 CALM      30.07S
MORRISTOWN     MOSUNNY   64  61  88 NE5       30.10S
$$

TNZ083-085-099-020900-
SOUTHEAST TENNESSEE

CITY           SKY/WX    TMP DP  RH WIND       PRES   REMARKS
CHATTANOOGA    CLOUDY    72  67  84 SE5       30.06S
$$

SKY/WX REPORTED AS FAIR MEANS FEW OR NO CLOUDS BELOW
12 THOUSAND FEET.




USA.gov is the U.S. government's official web portal to all federal, state and local government web resources and services.